Simultaneous Nadir Overpasses (SNOs) Predictions

Prediction of SNOs between FY3D and NOAA-19 Satellite Orbit:

Table of predicted SNOs for the next 14.0 days since TLE Epoch: 11/23/2024
Index Date (FY3D) Time (FY3D) Lat,Lon (FY3D) SZA (FY3D ) Date (NOAA-19) Time (NOAA-19) Lat,Lon (NOAA-19) SZA (NOAA-19 ) Distance(km) Time Diff (sec)
1 11/23/2024 03:17:56 76.03, 132.85 96.45 11/23/2024 03:17:24 76.04, 133.00 96.46 4.13 32
2 11/23/2024 04:08:40 -76.03, -59.81 83.55 11/23/2024 04:08:19 -76.00, -59.86 83.58 3.20 21
3 11/23/2024 04:59:26 76.03, 107.49 96.46 11/23/2024 04:59:21 76.05, 107.55 96.48 2.53 5
4 11/23/2024 05:50:10 -76.03, -85.17 83.54 11/23/2024 05:50:15 -76.06, -85.16 83.51 3.31 5
5 11/23/2024 06:40:56 76.03, 82.13 96.47 11/23/2024 06:41:18 76.06, 82.09 96.50 3.53 22
6 11/23/2
